EZS53CU EDDB-LFSB

Flight info

Callsign EZS53CU
Flight time 1h 19m
Altitude 30000
Route KISUC1Q/06R KISUC Z20 MAG Z115 ORTAG/N0418F310 DCT BAMKI/N0413F300 DCT IBAGA DCT DKB DCT TEDGO/N0363F240 T716 DENEL/N0360F230 T715 RIGVI
Aircraft A320/M-SDE2E3FGHIJ1RWXYZ/LB1

Departure

Time 2026-05-06 19:11
Airport Berlin Brandenburg Airport (EDDB)

Arrival

Time 2026-05-06 20:30
Airport EuroAirport Basel–Mulhouse–Freiburg (LFSB)
Time Latitude Longitude Altitude Speed Heading
2026-05-06 18:37 52.36084 13.51116 159 ft 0 kts 339°
2026-05-06 18:57 52.36081 13.51117 155 ft 3 kts 339°
2026-05-06 18:58 52.36056 13.51133 154 ft 4 kts 339°
2026-05-06 18:58 52.36036 13.51145 154 ft 3 kts 338°
2026-05-06 18:58 52.36014 13.51167 154 ft 4 kts 304°
2026-05-06 18:58 52.36008 13.51203 154 ft 3 kts 252°
2026-05-06 18:59 52.36009 13.51208 154 ft 0 kts 249°
2026-05-06 19:01 52.36008 13.51207 154 ft 1 kts 249°
2026-05-06 19:01 52.35999 13.51168 154 ft 7 kts 249°
2026-05-06 19:01 52.35979 13.51085 154 ft 8 kts 249°
2026-05-06 19:01 52.35959 13.51000 154 ft 11 kts 249°
2026-05-06 19:02 52.35936 13.50904 154 ft 10 kts 248°
2026-05-06 19:02 52.35911 13.50802 154 ft 9 kts 248°
2026-05-06 19:02 52.35897 13.50740 154 ft 11 kts 249°
2026-05-06 19:02 52.35852 13.50635 154 ft 13 kts 203°
2026-05-06 19:03 52.35773 13.50615 156 ft 11 kts 226°
2026-05-06 19:03 52.35745 13.50507 154 ft 10 kts 249°
2026-05-06 19:03 52.35723 13.50412 154 ft 9 kts 249°
2026-05-06 19:03 52.35696 13.50296 154 ft 11 kts 249°
2026-05-06 19:04 52.35669 13.50183 154 ft 10 kts 247°
2026-05-06 19:04 52.35639 13.50059 154 ft 13 kts 249°
2026-05-06 19:04 52.35600 13.49895 154 ft 17 kts 249°
2026-05-06 19:04 52.35560 13.49725 154 ft 15 kts 249°
2026-05-06 19:05 52.35523 13.49569 154 ft 15 kts 249°
2026-05-06 19:05 52.35479 13.49387 154 ft 19 kts 249°
2026-05-06 19:05 52.35431 13.49184 154 ft 18 kts 249°
2026-05-06 19:05 52.35387 13.48999 154 ft 17 kts 249°
2026-05-06 19:06 52.35348 13.48833 154 ft 15 kts 249°
2026-05-06 19:06 52.35310 13.48673 154 ft 17 kts 249°
2026-05-06 19:06 52.35265 13.48495 154 ft 11 kts 236°
2026-05-06 19:06 52.35198 13.48493 154 ft 9 kts 159°
2026-05-06 19:07 52.35120 13.48550 154 ft 17 kts 142°
2026-05-06 19:07 52.35090 13.48737 154 ft 18 kts 99°
2026-05-06 19:07 52.35061 13.48926 154 ft 9 kts 138°
2026-05-06 19:07 52.35051 13.48981 154 ft 5 kts 70°
2026-05-06 19:08 52.35052 13.48984 154 ft 0 kts 69°
2026-05-06 19:10 52.35117 13.49263 154 ft 63 kts 68°
2026-05-06 19:10 52.35358 13.50275 155 ft 125 kts 69°
2026-05-06 19:10 52.35724 13.51816 379 ft 154 kts 68°
2026-05-06 19:11 52.36045 13.53467 1101 ft 156 kts 88°
2026-05-06 19:11 52.35666 13.55184 1564 ft 178 kts 129°
2026-05-06 19:11 52.34522 13.56206 1932 ft 204 kts 167°
2026-05-06 19:11 52.33071 13.56063 2518 ft 214 kts 197°
2026-05-06 19:12 52.31736 13.54860 2978 ft 231 kts 217°
2026-05-06 19:12 52.30404 13.53138 3364 ft 255 kts 218°
2026-05-06 19:12 52.28990 13.51288 4097 ft 266 kts 220°
2026-05-06 19:12 52.27558 13.49356 5088 ft 265 kts 227°
2026-05-06 19:13 52.26567 13.46859 6057 ft 263 kts 251°
2026-05-06 19:13 52.26281 13.43928 6953 ft 264 kts 269°
2026-05-06 19:13 52.26283 13.40909 7824 ft 267 kts 270°
2026-05-06 19:13 52.26301 13.37865 8713 ft 270 kts 269°
2026-05-06 19:14 52.26278 13.34790 9586 ft 272 kts 263°
2026-05-06 19:14 52.25830 13.31759 10221 ft 282 kts 253°
2026-05-06 19:14 52.25246 13.28566 10489 ft 305 kts 252°
2026-05-06 19:14 52.24621 13.25185 11023 ft 316 kts 252°
2026-05-06 19:15 52.23985 13.21724 11750 ft 320 kts 253°
2026-05-06 19:15 52.23380 13.18211 12523 ft 324 kts 253°
2026-05-06 19:15 52.22791 13.14643 13280 ft 327 kts 254°
2026-05-06 19:15 52.22205 13.11035 13964 ft 331 kts 254°
2026-05-06 19:16 52.21615 13.07388 14617 ft 334 kts 254°
2026-05-06 19:16 52.21011 13.03690 15272 ft 337 kts 254°
2026-05-06 19:16 52.20410 13.00057 15916 ft 340 kts 253°
2026-05-06 19:16 52.19785 12.96331 16577 ft 343 kts 253°
2026-05-06 19:17 52.19154 12.92572 17235 ft 345 kts 253°
2026-05-06 19:17 52.18521 12.88797 17955 ft 346 kts 253°
2026-05-06 19:17 52.17882 12.84996 18538 ft 349 kts 253°
2026-05-06 19:17 52.17237 12.81181 19118 ft 351 kts 253°
2026-05-06 19:18 52.16584 12.77339 19679 ft 353 kts 253°
2026-05-06 19:18 52.15927 12.73478 20248 ft 355 kts 253°
2026-05-06 19:18 52.15265 12.69592 20809 ft 357 kts 253°
2026-05-06 19:18 52.14598 12.65681 21360 ft 359 kts 253°
2026-05-06 19:19 52.13929 12.61751 21908 ft 362 kts 253°
2026-05-06 19:19 52.13254 12.57793 22412 ft 364 kts 252°
2026-05-06 19:19 52.12573 12.53805 22937 ft 367 kts 252°
2026-05-06 19:19 52.11886 12.49801 23438 ft 369 kts 252°
2026-05-06 19:20 52.11190 12.45766 23864 ft 371 kts 252°
2026-05-06 19:20 52.10488 12.41720 24258 ft 374 kts 252°
2026-05-06 19:20 52.09772 12.37618 24583 ft 379 kts 252°
2026-05-06 19:20 52.09050 12.33473 25008 ft 381 kts 252°
2026-05-06 19:21 52.08334 12.29340 25484 ft 381 kts 252°
2026-05-06 19:21 52.07616 12.25188 25908 ft 383 kts 252°
2026-05-06 19:21 52.06891 12.21012 26306 ft 384 kts 252°
2026-05-06 19:21 52.06158 12.16824 26704 ft 386 kts 252°
2026-05-06 19:22 52.05416 12.12619 27081 ft 389 kts 252°
2026-05-06 19:22 52.04666 12.08384 27458 ft 391 kts 252°
2026-05-06 19:22 52.03911 12.04141 27834 ft 393 kts 252°
2026-05-06 19:22 52.03148 11.99864 28206 ft 395 kts 252°
2026-05-06 19:23 52.02396 11.95634 28562 ft 397 kts 251°
2026-05-06 19:23 52.01628 11.91310 28921 ft 399 kts 251°
2026-05-06 19:23 52.00844 11.86913 29284 ft 401 kts 251°
2026-05-06 19:23 52.00012 11.82655 29621 ft 402 kts 246°
2026-05-06 19:24 51.98776 11.78592 29804 ft 398 kts 236°
2026-05-06 19:24 51.97176 11.75067 29813 ft 380 kts 229°
2026-05-06 19:24 51.95470 11.71836 29811 ft 374 kts 226°
2026-05-06 19:24 51.93502 11.69143 29799 ft 371 kts 211°
2026-05-06 19:25 51.91133 11.67481 29815 ft 373 kts 200°
2026-05-06 19:25 51.86179 11.64859 29811 ft 375 kts 199°
2026-05-06 19:26 51.81218 11.62292 29811 ft 375 kts 199°
2026-05-06 19:26 51.76250 11.59722 29810 ft 375 kts 199°
2026-05-06 19:27 51.71293 11.57142 29795 ft 374 kts 199°
2026-05-06 19:27 51.66366 11.54403 29794 ft 374 kts 201°
2026-05-06 19:28 51.61465 11.51563 29796 ft 374 kts 201°
2026-05-06 19:28 51.56561 11.48743 29795 ft 374 kts 200°
2026-05-06 19:29 51.51654 11.45956 29788 ft 374 kts 200°
2026-05-06 19:29 51.46737 11.43188 29777 ft 374 kts 200°
2026-05-06 19:30 51.41835 11.40432 29782 ft 374 kts 200°
2026-05-06 19:30 51.36911 11.37668 29780 ft 374 kts 200°
2026-05-06 19:31 51.32003 11.34942 29785 ft 374 kts 200°
2026-05-06 19:31 51.24636 11.30876 29773 ft 374 kts 200°
2026-05-06 19:32 51.19727 11.28178 29798 ft 373 kts 200°
2026-05-06 19:32 51.14867 11.25501 29793 ft 372 kts 200°
2026-05-06 19:33 51.09987 11.22813 29796 ft 371 kts 200°
2026-05-06 19:33 51.05074 11.20106 29806 ft 371 kts 200°
2026-05-06 19:34 51.00234 11.17453 29812 ft 370 kts 200°
2026-05-06 19:34 50.95377 11.14805 29819 ft 368 kts 200°
2026-05-06 19:35 50.90532 11.12168 29817 ft 368 kts 200°
2026-05-06 19:35 50.85699 11.09540 29813 ft 367 kts 200°
2026-05-06 19:36 50.80871 11.06924 29807 ft 366 kts 200°
2026-05-06 19:36 50.76050 11.04319 29805 ft 366 kts 199°
2026-05-06 19:37 50.71243 11.01726 29805 ft 365 kts 199°
2026-05-06 19:37 50.67224 10.99716 29802 ft 365 kts 198°
2026-05-06 19:38 50.61544 10.97043 29793 ft 364 kts 197°
2026-05-06 19:38 50.56704 10.94755 29794 ft 364 kts 198°
2026-05-06 19:39 50.51861 10.92440 29790 ft 364 kts 198°
2026-05-06 19:39 50.47018 10.90120 29789 ft 364 kts 198°
2026-05-06 19:40 50.42176 10.87812 29790 ft 364 kts 198°
2026-05-06 19:40 50.37334 10.85506 29786 ft 364 kts 198°
2026-05-06 19:41 50.32500 10.83202 29799 ft 363 kts 197°
2026-05-06 19:41 50.27683 10.80917 29802 ft 362 kts 197°
2026-05-06 19:42 50.22864 10.78639 29805 ft 361 kts 197°
2026-05-06 19:42 50.18090 10.76390 29806 ft 361 kts 197°
2026-05-06 19:43 50.13291 10.74127 29797 ft 360 kts 196°
2026-05-06 19:43 50.08497 10.71875 29808 ft 359 kts 196°
2026-05-06 19:44 50.03719 10.69629 29811 ft 358 kts 196°
2026-05-06 19:44 49.98947 10.67395 29812 ft 358 kts 196°
2026-05-06 19:45 49.94180 10.65165 29804 ft 358 kts 196°
2026-05-06 19:45 49.89412 10.62945 29798 ft 358 kts 195°
2026-05-06 19:46 49.84646 10.60723 29801 ft 358 kts 195°
2026-05-06 19:46 49.79874 10.58509 29800 ft 358 kts 195°
2026-05-06 19:47 49.75098 10.56300 29807 ft 358 kts 195°
2026-05-06 19:47 49.70353 10.53924 29803 ft 359 kts 198°
2026-05-06 19:48 49.65649 10.51310 29789 ft 360 kts 198°
2026-05-06 19:48 49.60923 10.48687 29799 ft 361 kts 198°
2026-05-06 19:49 49.56175 10.46119 29811 ft 362 kts 197°
2026-05-06 19:49 49.51448 10.43606 29811 ft 362 kts 197°
2026-05-06 19:50 49.47463 10.41480 29809 ft 363 kts 198°
2026-05-06 19:50 49.41977 10.38534 29804 ft 364 kts 198°
2026-05-06 19:51 49.37193 10.35978 29811 ft 365 kts 198°
2026-05-06 19:51 49.32397 10.33422 29817 ft 365 kts 198°
2026-05-06 19:52 49.27597 10.30872 29827 ft 365 kts 198°
2026-05-06 19:52 49.22818 10.28348 29829 ft 365 kts 199°
2026-05-06 19:53 49.18818 10.26241 29839 ft 366 kts 199°
2026-05-06 19:53 49.14268 10.22815 29843 ft 368 kts 216°
2026-05-06 19:54 49.10744 10.17123 29865 ft 372 kts 228°
2026-05-06 19:54 49.07497 10.10969 29857 ft 373 kts 228°
2026-05-06 19:55 49.04246 10.04824 29861 ft 372 kts 228°
2026-05-06 19:55 49.01054 9.98804 29864 ft 371 kts 228°
2026-05-06 19:56 48.97813 9.92703 29862 ft 370 kts 228°
2026-05-06 19:56 48.94572 9.86614 29869 ft 370 kts 228°
2026-05-06 19:57 48.91333 9.80543 29861 ft 370 kts 228°
2026-05-06 19:57 48.88117 9.74519 29871 ft 369 kts 228°
2026-05-06 19:58 48.84878 9.68490 29878 ft 367 kts 228°
2026-05-06 19:58 48.81644 9.62494 29887 ft 369 kts 228°
2026-05-06 19:59 48.78461 9.56355 29852 ft 373 kts 237°
2026-05-06 19:59 48.75973 9.49435 29853 ft 375 kts 238°
2026-05-06 20:00 48.73488 9.42474 29855 ft 376 kts 238°
2026-05-06 20:00 48.70996 9.35513 29871 ft 376 kts 238°
2026-05-06 20:01 48.68501 9.28560 29899 ft 375 kts 238°
2026-05-06 20:01 48.66013 9.21654 29908 ft 373 kts 238°
2026-05-06 20:02 48.63502 9.14789 29931 ft 372 kts 238°
2026-05-06 20:02 48.60939 9.07867 29892 ft 383 kts 238°
2026-05-06 20:03 48.58332 9.00814 29888 ft 386 kts 239°
2026-05-06 20:03 48.55712 8.93739 29887 ft 386 kts 238°
2026-05-06 20:04 48.53087 8.86676 29885 ft 386 kts 238°
2026-05-06 20:04 48.50476 8.79668 29881 ft 386 kts 238°
2026-05-06 20:05 48.47848 8.72625 29888 ft 386 kts 238°
2026-05-06 20:05 48.45216 8.65587 29886 ft 385 kts 238°
2026-05-06 20:06 48.42573 8.58552 29859 ft 388 kts 238°
2026-05-06 20:06 48.39906 8.51467 29859 ft 390 kts 239°
2026-05-06 20:07 48.37216 8.44340 29863 ft 392 kts 238°
2026-05-06 20:07 48.34540 8.37266 29432 ft 384 kts 239°
2026-05-06 20:08 48.33229 8.33804 28963 ft 379 kts 239°
2026-05-06 20:08 48.31931 8.30374 28483 ft 375 kts 239°
2026-05-06 20:08 48.30643 8.26979 28000 ft 372 kts 239°
2026-05-06 20:08 48.29365 8.23616 27514 ft 369 kts 239°
2026-05-06 20:09 48.28093 8.20287 27040 ft 367 kts 239°
2026-05-06 20:09 48.26824 8.16980 26578 ft 363 kts 237°
2026-05-06 20:09 48.25234 8.14096 26125 ft 357 kts 218°
2026-05-06 20:09 48.23093 8.12291 25668 ft 353 kts 197°
2026-05-06 20:10 48.20686 8.11667 25192 ft 351 kts 185°
2026-05-06 20:10 48.18257 8.11404 24721 ft 350 kts 184°
2026-05-06 20:10 48.15834 8.11176 24305 ft 347 kts 184°
2026-05-06 20:10 48.13462 8.10965 23894 ft 345 kts 184°
2026-05-06 20:11 48.11091 8.10801 23573 ft 339 kts 183°
2026-05-06 20:11 48.08734 8.10638 23048 ft 339 kts 184°
2026-05-06 20:11 48.06388 8.10480 22604 ft 336 kts 184°
2026-05-06 20:11 48.04065 8.10344 22214 ft 332 kts 184°
2026-05-06 20:12 48.01764 8.10210 21798 ft 329 kts 184°
2026-05-06 20:12 47.99487 8.10095 21399 ft 326 kts 184°
2026-05-06 20:12 47.97227 8.09986 20960 ft 325 kts 183°
2026-05-06 20:12 47.94968 8.09870 20539 ft 323 kts 183°
2026-05-06 20:13 47.92728 8.09758 20124 ft 322 kts 183°
2026-05-06 20:13 47.90495 8.09610 19711 ft 320 kts 184°
2026-05-06 20:13 47.88287 8.09465 19408 ft 315 kts 184°
2026-05-06 20:13 47.86100 8.09333 19032 ft 313 kts 183°
2026-05-06 20:14 47.83933 8.09204 18703 ft 309 kts 184°
2026-05-06 20:14 47.81792 8.09102 18379 ft 306 kts 184°
2026-05-06 20:14 47.79668 8.08990 17944 ft 307 kts 184°
2026-05-06 20:14 47.77530 8.08871 17537 ft 306 kts 184°
2026-05-06 20:15 47.75413 8.08766 17131 ft 305 kts 184°
2026-05-06 20:15 47.73290 8.08657 16767 ft 303 kts 183°
2026-05-06 20:15 47.71180 8.08549 16354 ft 304 kts 184°
2026-05-06 20:15 47.69076 8.08436 16007 ft 302 kts 184°
2026-05-06 20:16 47.66979 8.08326 15656 ft 301 kts 184°
2026-05-06 20:16 47.64884 8.08226 15316 ft 300 kts 184°
2026-05-06 20:16 47.62803 8.08138 14979 ft 299 kts 184°
2026-05-06 20:16 47.60728 8.08054 14631 ft 298 kts 184°
2026-05-06 20:17 47.58659 8.07975 14304 ft 297 kts 184°
2026-05-06 20:17 47.56595 8.07907 13977 ft 296 kts 184°
2026-05-06 20:17 47.54557 8.07686 13665 ft 291 kts 197°
2026-05-06 20:17 47.52670 8.06732 13532 ft 281 kts 203°
2026-05-06 20:18 47.50874 8.05693 13390 ft 273 kts 204°
2026-05-06 20:18 47.49151 8.04692 13255 ft 266 kts 204°
2026-05-06 20:18 47.47451 8.03711 13101 ft 259 kts 204°
2026-05-06 20:18 47.45799 8.02760 12785 ft 251 kts 204°
2026-05-06 20:19 47.44180 8.01833 12315 ft 248 kts 204°
2026-05-06 20:19 47.42575 8.00924 11836 ft 246 kts 204°
2026-05-06 20:19 47.40983 8.00028 11365 ft 244 kts 204°
2026-05-06 20:19 47.39406 7.99147 10877 ft 242 kts 204°
2026-05-06 20:20 47.37838 7.98278 10388 ft 240 kts 204°
2026-05-06 20:20 47.36280 7.97424 9917 ft 237 kts 204°
2026-05-06 20:20 47.34890 7.96233 9408 ft 229 kts 229°
2026-05-06 20:20 47.34014 7.94313 8865 ft 226 kts 242°
2026-05-06 20:21 47.33290 7.92259 8299 ft 225 kts 243°
2026-05-06 20:21 47.32589 7.90206 7821 ft 225 kts 243°
2026-05-06 20:21 47.31894 7.88157 7523 ft 222 kts 243°
2026-05-06 20:21 47.31207 7.86123 7230 ft 221 kts 243°
2026-05-06 20:22 47.30522 7.84103 7049 ft 219 kts 243°
2026-05-06 20:22 47.29860 7.82076 7001 ft 220 kts 250°
2026-05-06 20:22 47.29749 7.79846 6999 ft 224 kts 281°
2026-05-06 20:22 47.30462 7.77771 7005 ft 231 kts 301°
2026-05-06 20:23 47.31433 7.75870 7003 ft 233 kts 303°
2026-05-06 20:23 47.32435 7.74008 7003 ft 227 kts 303°
2026-05-06 20:23 47.33394 7.72247 7010 ft 215 kts 303°
2026-05-06 20:23 47.34323 7.70545 7005 ft 212 kts 304°
2026-05-06 20:24 47.35467 7.69151 6904 ft 220 kts 327°
2026-05-06 20:24 47.36860 7.68192 6622 ft 221 kts 330°
2026-05-06 20:24 47.38265 7.67254 6305 ft 222 kts 329°
2026-05-06 20:24 47.39645 7.66311 5951 ft 220 kts 329°
2026-05-06 20:25 47.41031 7.65355 5602 ft 221 kts 329°
2026-05-06 20:25 47.42418 7.64398 5251 ft 218 kts 329°
2026-05-06 20:25 47.43776 7.63462 4925 ft 212 kts 329°
2026-05-06 20:25 47.45095 7.62552 4586 ft 206 kts 329°
2026-05-06 20:26 47.46384 7.61661 4275 ft 203 kts 329°
2026-05-06 20:26 47.47630 7.60800 3958 ft 194 kts 330°
2026-05-06 20:26 47.48823 7.59975 3644 ft 186 kts 330°
2026-05-06 20:26 47.49990 7.59166 3347 ft 184 kts 330°
2026-05-06 20:27 47.51144 7.58367 3057 ft 181 kts 330°
2026-05-06 20:27 47.52241 7.57607 2797 ft 168 kts 331°
2026-05-06 20:27 47.53280 7.56887 2492 ft 161 kts 332°
2026-05-06 20:27 47.54275 7.56193 2221 ft 157 kts 334°
2026-05-06 20:28 47.55247 7.55517 1992 ft 153 kts 335°
2026-05-06 20:28 47.56208 7.54851 1736 ft 152 kts 335°
2026-05-06 20:28 47.57159 7.54197 1535 ft 150 kts 333°
2026-05-06 20:28 47.58098 7.53545 1301 ft 149 kts 333°
2026-05-06 20:29 47.59038 7.52891 1059 ft 150 kts 335°
2026-05-06 20:29 47.59970 7.52240 903 ft 140 kts 335°
2026-05-06 20:29 47.60753 7.51696 887 ft 102 kts 335°
2026-05-06 20:29 47.61244 7.51352 879 ft 58 kts 335°
2026-05-06 20:30 47.61583 7.51118 880 ft 50 kts 335°
2026-05-06 20:30 47.61799 7.51111 886 ft 9 kts 68°
2026-05-06 20:30 47.61810 7.51175 887 ft 5 kts 84°
2026-05-06 20:31 47.61788 7.51253 888 ft 10 kts 129°
2026-05-06 20:31 47.61737 7.51305 888 ft 8 kts 153°
2026-05-06 20:31 47.61688 7.51339 887 ft 9 kts 155°
2026-05-06 20:31 47.61629 7.51380 887 ft 10 kts 155°
2026-05-06 20:32 47.61557 7.51430 887 ft 11 kts 154°
2026-05-06 20:32 47.61492 7.51476 887 ft 10 kts 155°
2026-05-06 20:32 47.61434 7.51516 887 ft 9 kts 155°
2026-05-06 20:32 47.61357 7.51568 887 ft 16 kts 155°
2026-05-06 20:33 47.61250 7.51644 887 ft 18 kts 155°
2026-05-06 20:33 47.61132 7.51726 888 ft 20 kts 154°
2026-05-06 20:33 47.61003 7.51815 888 ft 21 kts 155°
2026-05-06 20:33 47.60863 7.51912 888 ft 23 kts 155°
2026-05-06 20:34 47.60726 7.52008 888 ft 19 kts 154°
2026-05-06 20:34 47.60598 7.52097 888 ft 21 kts 155°
2026-05-06 20:34 47.60482 7.52179 888 ft 9 kts 155°
2026-05-06 20:34 47.60444 7.52205 888 ft 6 kts 155°
2026-05-06 20:35 47.60399 7.52236 888 ft 9 kts 154°
2026-05-06 20:35 47.60332 7.52282 889 ft 12 kts 154°
2026-05-06 20:35 47.60245 7.52344 889 ft 16 kts 155°
2026-05-06 20:35 47.60142 7.52416 889 ft 17 kts 155°
2026-05-06 20:36 47.60034 7.52490 889 ft 17 kts 155°
2026-05-06 20:36 47.59926 7.52564 889 ft 18 kts 155°
2026-05-06 20:36 47.59814 7.52642 889 ft 18 kts 155°
2026-05-06 20:36 47.59718 7.52710 889 ft 14 kts 154°
2026-05-06 20:37 47.59636 7.52770 889 ft 9 kts 142°
2026-05-06 20:37 47.59641 7.52850 889 ft 8 kts 63°
2026-05-06 20:37 47.59665 7.52924 889 ft 9 kts 65°
2026-05-06 20:37 47.59707 7.53019 889 ft 12 kts 28°
2026-05-06 20:38 47.59764 7.53086 887 ft 11 kts 72°
2026-05-06 20:38 47.59786 7.53156 886 ft 4 kts 65°
2026-05-06 20:38 47.59791 7.53171 886 ft 0 kts 65°